This demonstration page uses our WeatherBlox Daily Observations layout. Learn more.

39.92423, -83.80882

Hourly Observations for August 1, 2018

Temp ( °F °C ) Dew Point ( °F °C ) Humidity (%) Winds ( mph kmh ) Pressure ( in mb ) Visibility ( mi km ) Precip ( " mm )
12:56 am 00:56 Partly Cloudy 68 20 68 20 100 100 SW 7 11 29.92 1013 10 16.0934 0 0
1:03 am 01:03 Mostly Cloudy 68 20 68 20 100 100 SW 6 9 29.91 1013 10 16.0934 0 0
1:17 am 01:17 Cloudy 68 20 68 20 100 100 WSW 5 7 29.91 1013 10 16.0934 0 0
1:56 am 01:56 Cloudy 68 20 68 20 100 100 SW 6 9 29.93 1014 10 16.0934 0 0
2:24 am 02:24 Cloudy 68 20 68 20 100 100 WSW 5 7 29.91 1013 10 16.0934 0 0
2:56 am 02:56 Cloudy 68 20 68 20 100 100 WSW 7 11 29.93 1013 10 16.0934 0 0
3:17 am 03:17 Partly Cloudy 66 19 66 19 100 100 WSW 6 9 29.91 1013 10 16.0934 0 0
3:24 am 03:24 Partly Cloudy 66 19 66 19 100 100 WSW 7 11 29.91 1013 10 16.0934 0 0
3:56 am 03:56 Mostly Clear 66 18.9 66 18.9 100 100 WSW 5 7 29.92 1013 10 16.0934 0 0
4:56 am 04:56 Partly Cloudy 65 18.3 65 18.3 100 100 SW 6 9 29.93 1014 10 16.0934 0 0
5:07 am 05:07 Mostly Cloudy 66 19 66 19 100 100 SW 8 13 29.91 1013 10 16.0934 0 0
5:56 am 05:56 Cloudy 67 19.4 67 19.4 100 100 WSW 6 9 29.95 1014 7 11.26538 0 0
6:56 am 06:56 Cloudy 65 18.3 65 18.3 100 100 W 8 13 29.97 1015 10 16.0934 0 0
7:05 am 07:05 Cloudy 66 19 66 19 100 100 W 6 9 29.94 1014 10 16.0934 0 0
7:56 am 07:56 Cloudy 66 18.9 65 18.3 96 96 W 7 11 29.97 1015 10 16.0934 0 0
8:56 am 08:56 Cloudy 66 18.9 66 18.9 100 100 WSW 8 13 30 1016 10 16.0934 0 0
9:56 am 09:56 Cloudy with Mist and Fog 66 18.9 66 18.9 100 100 SW 6 9 30.02 1017 5 8.0467 0 0
10:28 am 10:28 Cloudy with Light Rain 66 19 66 19 100 100 WNW 6 9 30 1016 4 6.43736 0 0.0254
10:38 am 10:38 undefined 66 19 66 19 100 100 undefined N/A N/A N/A 0 0.0254
10:56 am 10:56 Partly Cloudy with Rain 67 19.4 66 18.9 97 97 WNW 6 9 30.02 1017 10 16.0934 0 0
11:17 am 11:17 Cloudy 66 19 66 19 100 100 W 6 9 30 1016 7 11.26538 0 0
11:27 am 11:27 Cloudy 66 19 66 19 100 100 WNW 5 7 30 1016 9 14.48406 0 0
11:46 am 11:46 Cloudy 66 19 66 19 100 100 WNW 6 9 30 1016 10 16.0934 0 0
11:56 am 11:56 Cloudy 67 19.4 66 18.9 97 97 W 5 7 30.02 1017 10 16.0934 0 0
12:35 pm 12:35 Cloudy 70 21 66 19 88 88 WSW 7 11 30 1016 10 16.0934 0 0
12:56 pm 12:56 Cloudy 69 20.6 66 18.9 90 90 WSW 7 11 30.02 1017 10 16.0934 0 0
1:03 pm 13:03 Cloudy 70 21 66 19 88 88 WSW 7 11 30 1016 10 16.0934 0 0
1:11 pm 13:11 Cloudy 70 21 66 19 88 88 SW 7 11 30 1016 10 16.0934 0 0
1:28 pm 13:28 Cloudy 70 21 66 19 88 88 W 7 11 30 1016 10 16.0934 0 0
1:40 pm 13:40 Cloudy 72 22 66 19 83 83 WSW 8 13 30 1016 10 16.0934 0 0
1:56 pm 13:56 Cloudy 71 21.7 66 18.9 84 84 SW 8 13 30.02 1017 10 16.0934 0 0
2:56 pm 14:56 Cloudy 72 22.2 66 18.9 82 82 SW 5 7 30.03 1017 10 16.0934 0 0
3:56 pm 15:56 Cloudy 73 22.8 65 18.3 76 76 W 6 9 30.01 1016 10 16.0934 0 0
4:05 pm 16:05 Cloudy 73 23 66 19 78 78 W 5 7 30 1016 10 16.0934 0 0
4:14 pm 16:14 Cloudy 73 23 66 19 78 78 W 5 7 30 1016 10 16.0934 0 0
4:56 pm 16:56 Sunny 75 23.9 66 18.9 74 74 Calm 30 1016 10 16.0934 0 0
5:56 pm 17:56 Partly Cloudy 74 23.3 66 18.9 76 76 Calm 30.01 1016 10 16.0934 0 0
6:56 pm 18:56 Sunny 72 22.2 68 20 87 87 SE 5 7 30.01 1016 10 16.0934 0 0
7:56 pm 19:56 Partly Cloudy 70 21.1 68 20 93 93 SSE 5 7 30.02 1017 10 16.0934 0 0
8:56 pm 20:56 Clear 68 20 67 19.4 96 96 SSE 5 7 30.02 1017 10 16.0934 0 0
9:56 pm 21:56 Clear 67 19.4 67 19.4 100 100 Calm 30.04 1017 10 16.0934 0 0
10:56 pm 22:56 Clear 66 18.9 66 18.9 100 100 S 5 7 30.04 1017 8 12.87472 0 0
11:56 pm 23:56 Clear with Mist and Fog 65 18.3 65 18.3 100 100 SE 3 6 30.05 1018 5 8.0467 0 0

Powered by AerisWeather